Location: Ariel
(45.9570°N, 122.5700°W)
Time: 02:06:04
(UTC-07:00)

Altair - Pass Details

Date: 21 July 2019
Orbit: 1501 x 1683 km, 47.2° (Epoch: 25 August)

Event Time Altitude Azimuth Distance (km) Brightness Sun altitude
Rises 17:28:58 0° 286° (WNW) 4,640 11.0 33.1°
Reaches altitude 10° 17:31:58 10° 286° (WNW) 3,665 10.8 32.5°
Maximum altitude 17:41:11 81° 201° (SSW) 1,555 8.2 30.9°
Drops below altitude 10° 17:50:42 10° 116° (ESE) 3,768 9.2 29.3°
Sets 17:53:49 0° 115° (ESE) 4,776 9.6 28.7°
